COSMOS 2251 DEB, 33916

Orbit data source: Space-Track

COSMOS 2251 DEB, 33916 is space debris in LEO originally from a launch on Wed, 16 Jun 1993 UTC launched from the Plesetsk Missile And Space Complex (PKMTR). The debris from Iridium 33, an American commercial communications satellite, has been tracked extensively since its accidental collision with the defunct Russian satellite Cosmos 2251 in 2009. This event, occurring at high speed in low Earth orbit (LEO), generated thousands of pieces of space debris, significantly increasing the risk of further collisions. The Iridium 33 debris cloud has impacted space traffic management and orbital debris mitigation strategies, making it a subject of ongoing study in space situational awareness.

Loading next visibility...
Identifier
33916, 1993-036DV
Orbit
LEO
Country
Flag of CISCIS
Related business
Manufacturer
Unknown
Mission
Spacecraft
Bus & Motor
Unknown
Mass
Unknown
Launch date (UTC)
1993-06-16 (33 years ago)
Launch vehicle
Unknown
Launch site
Plesetsk Missile And Space Complex (PKMTR)
Object type
Payload
Rocket body
Debris
Shape & HBR
Unknown shape, 0.2 m
Radar Cross Section
Medium (>0.1 m² and <1 m²)

Expand to show TLE details & history
Last TLE update: 1 day ago

TLE from 1 day ago
0 COSMOS 2251 DEB
1 33916U 93036DV  26208.75081126  .00000508  00000-0  42510-3 0  9999
2 33916  74.0510  27.5348 0324092 148.9874 226.2362 13.68795232869979
Epoch: 2026-07-27T18:01Z
TLE epoch observation values (Epoch: 2026-07-27T18:01:10.092Z)
Latitude
12.0865°
Longitude
175.30358°
Altitude
1,175.101 km
Speed
7.183 km/s
True Right ascension
02h 04m 06s
True Declination
12° 01' 13"
Sunlit
Object was in daylight at epoch
Visualization orbit readout
Latitude
Unknown
Longitude
Unknown
Altitude
Unknown
Speed
Unknown
Apparent Right ascension
Unknown
Apparent Declination
Unknown
Sunlit
N/A
Visualization observer readout
Local Sidereal Time
09:33:52
Azimuth
Unknown
Elevation
Unknown
Doppler factor
Unknown
Orbital elements
Apogee altitude
1,240.765 km
Perigee altitude
762.422 km
Semi-major axis
7,379.731 km
Eccentricity
0.03241
Inclination
74.051°
RAAN
27.5348°
Arg. of periapsis
148.9874°
True anomaly
223.62817°
Mean anomaly
226.2362°
Eccentric anomaly
224.92489°
Mean motion
3.4236 °/min
Orbital period
105.15 mins
BSTAR
0.0004251
Loading maneuver chart data...
Computing Atmospheric mass density...

Documentation

Showing up to 5 results
|